| time (UTC) | temp C | wind direction | speed KPH | gust KPH | rain 1hr cm | rain 24hr cm | rain mn cm | humidity % | barometer mb |
| 20260507130033 | 11 | 9 | 0.0 | 0.0 | 0.00 | 0.00 | 0.00 | 88 | 1016.1 |
| 20260507124533 | 11 | 9 | 0.0 | 0.0 | 0.00 | 0.00 | 0.00 | 88 | 1015.9 |
| 20260507123029 | 11 | 9 | 0.0 | 0.0 | 0.00 | 0.00 | 0.00 | 88 | 1015.8 |
| 20260507121524 | 12 | 9 | 0.0 | 0.0 | 0.00 | 0.00 | 0.00 | 88 | 1015.8 |
| 20260507120024 | 12 | 9 | 0.0 | 0.0 | 0.00 | 0.00 | 0.00 | 88 | 1015.8 |
| 20260507114515 | 12 | 9 | 0.0 | 0.0 | 0.00 | 0.00 | 0.00 | 88 | 1015.8 |
| 20260507113006 | 12 | 9 | 0.0 | 0.0 | 0.00 | 0.00 | 0.00 | 88 | 1015.7 |
| 20260507111545 | 12 | 9 | 0.0 | 0.0 | 0.00 | 0.00 | 0.00 | 88 | 1015.9 |
| 20260507110059 | 12 | 9 | 0.0 | 0.0 | 0.00 | 0.00 | 0.00 | 88 | 1015.9 |
| 20260507104526 | 12 | 9 | 0.0 | 0.0 | 0.00 | 0.00 | 0.00 | 87 | 1016.0 |
| 20260507103028 | 12 | 9 | 0.0 | 0.0 | 0.00 | 0.00 | 0.00 | 87 | 1016.2 |
| 20260507101515 | 12 | 9 | 0.0 | 0.0 | 0.00 | 0.00 | 0.00 | 87 | 1016.2 |
| 20260507100004 | 12 | 9 | 0.0 | 0.0 | 0.00 | 0.00 | 0.00 | 87 | 1016.2 |
| 20260507094540 | 12 | 9 | 0.0 | 0.0 | 0.00 | 0.00 | 0.00 | 87 | 1016.3 |
| 20260507093038 | 12 | 9 | 0.0 | 0.0 | 0.00 | 0.00 | 0.00 | 88 | 1016.4 |
| 20260507091519 | 12 | 9 | 0.0 | 0.0 | 0.00 | 0.00 | 0.00 | 87 | 1016.6 |
| 20260507090026 | 12 | 9 | 0.0 | 0.0 | 0.00 | 0.00 | 0.00 | 87 | 1016.6 |
| 20260507084559 | 12 | 9 | 0.0 | 0.0 | 0.00 | 0.00 | 0.00 | 87 | 1016.9 |
| 20260507083057 | 12 | 9 | 0.0 | 0.0 | 0.00 | 0.00 | 0.00 | 87 | 1017.0 |
| 20260507081538 | 13 | 5 | 0.0 | 0.0 | 0.00 | 0.00 | 0.00 | 87 | 1017.1 |
| 20260507080042 | 13 | 5 | 0.0 | 0.0 | 0.00 | 0.00 | 0.00 | 87 | 1017.2 |
| 20260507074527 | 13 | 9 | 0.0 | 0.0 | 0.00 | 0.00 | 0.00 | 87 | 1017.2 |
| 20260507073017 | 13 | 9 | 0.0 | 0.0 | 0.00 | 0.00 | 0.00 | 87 | 1017.1 |
| 20260507071600 | 13 | 5 | 0.0 | 0.0 | 0.00 | 0.00 | 0.00 | 87 | 1017.3 |
| 20260507070103 | 13 | 5 | 0.0 | 0.0 | 0.00 | 0.00 | 0.00 | 87 | 1017.3 |
| 20260507064539 | 13 | 5 | 0.0 | 0.0 | 0.00 | 0.00 | 0.00 | 86 | 1017.5 |
| 20260507063037 | 14 | 5 | 0.0 | 0.0 | 0.00 | 0.00 | 0.00 | 87 | 1017.5 |
| 20260507061519 | 14 | 9 | 0.0 | 0.0 | 0.00 | 0.00 | 0.00 | 86 | 1017.6 |
| 20260507060020 | 14 | 5 | 0.0 | 0.0 | 0.00 | 0.00 | 0.00 | 86 | 1017.5 |
| 20260507054506 | 14 | 5 | 0.0 | 0.0 | 0.00 | 0.00 | 0.00 | 86 | 1017.5 |
| 20260507053007 | 15 | 5 | 0.0 | 0.0 | 0.00 | 0.00 | 0.00 | 85 | 1017.4 |
| 20260507051505 | 15 | 5 | 0.0 | 0.0 | 0.00 | 0.00 | 0.00 | 85 | 1017.5 |
| 20260507050006 | 15 | 5 | 0.0 | 0.0 | 0.00 | 0.00 | 0.00 | 85 | 1017.4 |
| 20260507044505 | 15 | 5 | 0.0 | 3.2 | 0.00 | 0.00 | 0.00 | 84 | 1017.4 |
| 20260507043004 | 15 | 5 | 0.0 | 4.8 | 0.00 | 0.00 | 0.00 | 84 | 1017.3 |
| 20260507041506 | 15 | 5 | 0.0 | 8.0 | 0.00 | 0.00 | 0.00 | 83 | 1017.2 |
| 20260507040005 | 15 | 5 | 1.6 | 9.7 | 0.00 | 0.00 | 0.00 | 83 | 1017.2 |
| 20260507034555 | 15 | 5 | 0.0 | 8.0 | 0.00 | 0.00 | 0.00 | 82 | 1017.0 |
| 20260507033047 | 16 | 5 | 0.0 | 8.0 | 0.00 | 0.00 | 0.00 | 82 | 1016.9 |
| 20260507031521 | 16 | 5 | 3.2 | 12.9 | 0.00 | 0.00 | 0.00 | 82 | 1016.8 |
| 20260507030021 | 16 | 5 | 1.6 | 9.7 | 0.00 | 0.00 | 0.00 | 81 | 1016.7 |
| 20260507024503 | 16 | 5 | 1.6 | 16.1 | 0.00 | 0.00 | 0.00 | 80 | 1016.5 |
| 20260507023002 | 16 | 5 | 3.2 | 12.9 | 0.00 | 0.00 | 0.00 | 79 | 1016.4 |
| 20260507021549 | 17 | 5 | 6.4 | 14.5 | 0.00 | 0.00 | 0.00 | 78 | 1016.5 |
| 20260507020052 | 17 | 5 | 3.2 | 14.5 | 0.00 | 0.00 | 0.00 | 76 | 1016.4 |
| 20260507014537 | 18 | 5 | 4.8 | 16.1 | 0.00 | 0.00 | 0.00 | 74 | 1016.2 |
| 20260507013026 | 18 | 5 | 3.2 | 14.5 | 0.00 | 0.00 | 0.00 | 75 | 1016.3 |
| 20260507011516 | 18 | 5 | 4.8 | 12.9 | 0.00 | 0.00 | 0.00 | 74 | 1016.2 |
| 20260507010015 | 19 | 5 | 4.8 | 20.9 | 0.00 | 0.00 | 0.00 | 73 | 1016.1 |
| 20260507004549 | 20 | 5 | 1.6 | 16.1 | 0.00 | 0.00 | 0.00 | 71 | 1016.1 |
| 20260507003049 | 20 | 5 | 4.8 | 20.9 | 0.00 | 0.00 | 0.00 | 70 | 1016.1 |
| 20260507001538 | 20 | 5 | 4.8 | 16.1 | 0.00 | 0.00 | 0.00 | 69 | 1015.9 |
| 20260507000031 | 20 | 5 | 4.8 | 16.1 | 0.00 | 0.00 | 0.00 | 70 | 1015.9 |
| 20260506234512 | 20 | 5 | 3.2 | 16.1 | 0.00 | 0.00 | 0.00 | 69 | 1015.8 |
| 20260506233010 | 20 | 5 | 8.0 | 20.9 | 0.00 | 0.00 | 0.00 | 69 | 1015.9 |
| 20260506231553 | 20 | 5 | 6.4 | 16.1 | 0.00 | 0.00 | 0.00 | 68 | 1016.0 |
| 20260506230054 | 20 | 5 | 4.8 | 24.1 | 0.00 | 0.00 | 0.00 | 69 | 1016.0 |
| 20260506224532 | 20 | 5 | 8.0 | 24.1 | 0.00 | 0.00 | 0.00 | 67 | 1016.1 |
| 20260506223030 | 21 | 5 | 8.0 | 19.3 | 0.00 | 0.00 | 0.00 | 66 | 1016.3 |
| 20260506221513 | 20 | 5 | 6.4 | 19.3 | 0.00 | 0.00 | 0.00 | 67 | 1016.4 |
| 20260506220010 | 21 | 360 | 6.4 | 17.7 | 0.00 | 0.00 | 0.00 | 65 | 1016.4 |
| 20260506214551 | 21 | 5 | 6.4 | 20.9 | 0.00 | 0.00 | 0.00 | 63 | 1016.6 |
| 20260506213049 | 21 | 5 | 3.2 | 22.5 | 0.00 | 0.00 | 0.00 | 65 | 1016.7 |
| 20260506211534 | 21 | 5 | 8.0 | 20.9 | 0.00 | 0.00 | 0.00 | 64 | 1016.8 |
| 20260506210030 | 20 | 5 | 4.8 | 19.3 | 0.00 | 0.00 | 0.00 | 64 | 1016.9 |
| 20260506204514 | 21 | 5 | 4.8 | 14.5 | 0.00 | 0.00 | 0.00 | 64 | 1017.0 |
| 20260506203013 | 20 | 5 | 6.4 | 20.9 | 0.00 | 0.00 | 0.00 | 65 | 1017.0 |
| 20260506201554 | 20 | 5 | 4.8 | 19.3 | 0.00 | 0.00 | 0.00 | 65 | 1017.0 |
| 20260506200056 | 20 | 5 | 11.3 | 20.9 | 0.00 | 0.00 | 0.00 | 64 | 1017.1 |
| 20260506194536 | 20 | 5 | 3.2 | 20.9 | 0.00 | 0.00 | 0.00 | 65 | 1017.3 |
| 20260506193034 | 20 | 5 | 8.0 | 20.9 | 0.00 | 0.00 | 0.00 | 64 | 1017.5 |
| 20260506191514 | 20 | 5 | 4.8 | 17.7 | 0.00 | 0.00 | 0.00 | 64 | 1017.5 |
| 20260506190013 | 20 | 5 | 4.8 | 19.3 | 0.00 | 0.00 | 0.00 | 65 | 1017.7 |
| 20260506184521 | 19 | 5 | 6.4 | 16.1 | 0.00 | 0.00 | 0.00 | 66 | 1017.8 |
| 20260506183014 | 20 | 5 | 3.2 | 19.3 | 0.00 | 0.00 | 0.00 | 63 | 1017.8 |
| 20260506181510 | 20 | 5 | 3.2 | 14.5 | 0.00 | 0.00 | 0.00 | 64 | 1018.0 |
| 20260506180009 | 19 | 5 | 4.8 | 17.7 | 0.00 | 0.00 | 0.00 | 65 | 1018.1 |
| 20260506174509 | 20 | 5 | 1.6 | 16.1 | 0.00 | 0.00 | 0.00 | 66 | 1018.2 |
| 20260506173007 | 20 | 5 | 3.2 | 16.1 | 0.00 | 0.00 | 0.00 | 66 | 1018.2 |
| 20260506171550 | 19 | 5 | 8.0 | 19.3 | 0.00 | 0.00 | 0.00 | 66 | 1018.4 |
| 20260506170050 | 19 | 5 | 3.2 | 14.5 | 0.00 | 0.00 | 0.00 | 64 | 1018.3 |
| 20260506164528 | 18 | 5 | 1.6 | 8.0 | 0.00 | 0.00 | 0.00 | 65 | 1018.3 |
| 20260506163027 | 18 | 5 | 1.6 | 6.4 | 0.00 | 0.00 | 0.00 | 67 | 1018.4 |
| 20260506161506 | 17 | 5 | 1.6 | 4.8 | 0.00 | 0.00 | 0.00 | 69 | 1018.4 |
| 20260506160000 | 17 | 5 | 0.0 | 4.8 | 0.00 | 0.00 | 0.00 | 72 | 1018.4 |
| 20260506154601 | 16 | 5 | 0.0 | 3.2 | 0.00 | 0.00 | 0.00 | 73 | 1018.3 |
| 20260506153043 | 16 | 5 | 0.0 | 1.6 | 0.00 | 0.00 | 0.00 | 74 | 1018.4 |
| 20260506151534 | 15 | 5 | 0.0 | 4.8 | 0.00 | 0.00 | 0.00 | 78 | 1018.4 |
| 20260506150012 | 13 | 5 | 0.0 | 3.2 | 0.00 | 0.00 | 0.00 | 80 | 1018.4 |
| 20260506144524 | 13 | 5 | 0.0 | 1.6 | 0.00 | 0.10 | 0.00 | 81 | 1018.3 |
| 20260506143053 | 12 | 5 | 0.0 | 3.2 | 0.00 | 0.10 | 0.00 | 83 | 1018.3 |
| 20260506141546 | 12 | 5 | 0.0 | 0.0 | 0.00 | 0.10 | 0.00 | 84 | 1018.3 |
| 20260506140040 | 11 | 5 | 0.0 | 0.0 | 0.00 | 0.10 | 0.00 | 84 | 1018.3 |
| 20260506134532 | 11 | 5 | 0.0 | 0.0 | 0.00 | 0.20 | 0.00 | 85 | 1018.2 |
| 20260506133012 | 11 | 5 | 0.0 | 0.0 | 0.00 | 0.20 | 0.00 | 85 | 1018.0 |
| 20260506131511 | 11 | 5 | 0.0 | 0.0 | 0.00 | 0.20 | 0.00 | 85 | 1017.8 |